Regional Weather Roundup
Issued by NWS

Home | Current Version | Previous Version | Graphics & Text | Print | Product List | Glossary On
Versions: 1 2 3 4 5 6 7 8 9 10 11 12 13 14 15 16 17 18 19 20 21 22 23 24 25 26 27 28 29 30 31 32 33 34 35 36 37 38 39 40 41 42 43 44 45 46 47 48 49 50
713
ASUS43 KTOP 220808
RWRKS

WEATHER ROUNDUP FOR KANSAS
NATIONAL WEATHER SERVICE GOODLAND KS
200 AM CST TUE JAN 22 2019

NOTE:  "FAIR" INDICATES FEW OR NO CLOUDS BELOW 12,000 FEET WITH NO
SIGNIFICANT WEATHER AND/OR OBSTRUCTIONS TO VISIBILITY.

KSZ001>006-013>018-027>032-041>047-220900-
NORTHWEST KANSAS

CITY           SKY/WX    TMP DP  RH WIND       PRES   REMARKS
GOODLAND       CLOUDY    23  22  96 N24G32    29.68R WCI   7
HAYS           CLOUDY    28  28 100 N21       29.63R WCI  15
HILL CITY      CLOUDY    27  25  92 N23G33    29.70R FOG     WCI  12
RUSSELL        PTCLDY    27  27 100 N16       29.62R WCI  15
$$

KSZ061>065-074>080-084>089-220900-
SOUTHWEST KANSAS

CITY           SKY/WX    TMP DP  RH WIND       PRES   REMARKS
DODGE CITY     FOG       30  28  92 N16G29    29.60R VSB 1/2 WCI  19
ELKHART        CLEAR     39  33  77 NW8       29.58S
GARDEN CITY    CLOUDY    29  28  96 N23G32    29.60S FOG     WCI  15
GREAT BEND     CLEAR     38  35  89 W10       29.60R WCI  31
LIBERAL        CLOUDY    30  29  96 N23       29.58R FOG     WCI  17
PRATT          MOCLDY    42  39  88 W8        29.60R
$$

KSZ066>073-081>083-090>101-220900-
SOUTHEAST KANSAS

CITY           SKY/WX    TMP DP  RH WIND       PRES   REMARKS
CHANUTE        CLOUDY    41  31  67 S20G30    29.76F
COFFEYVILLE    CLOUDY    44  34  67 SE16      29.80F
HUTCHINSON     CLOUDY    41  38  89 SE9       29.61R
MEDICINE LODGE   N/A     46  41  82 SE13G22   29.57S
NEWTON         CLOUDY    41  37  86 S26G33    29.61S
PARSONS        CLOUDY    42  32  67 S14G25    29.79F
WICHITA INTL   CLOUDY    43  39  86 S23G35    29.62F
WICHITA JABRA  CLOUDY    43  38  82 S24G36    29.62F
WICHITA MCCONL CLOUDY    44  37  79 S24G31    29.63
WINFIELD       CLOUDY    45  40  82 S21G31    29.68F
$$

KSZ007>012-019>026-033>040-048>060-102>105-220900-
NORTHEAST KANSAS

CITY           SKY/WX    TMP DP  RH WIND       PRES   REMARKS
CONCORDIA      CLOUDY    30  27  88 E5        29.66R
EMPORIA        CLOUDY    39  31  72 SE18G31   29.68F WCI  30
LAWRENCE       CLOUDY    37  27  67 SE16G23   29.78S WCI  28
MANHATTAN      CLOUDY    38  31  76 SE7       29.69S
MARYSVILLE     CLOUDY    34  30  86 SE10      29.71S WCI  26
OLATHE IND     CLOUDY    35  26  69 SE21G31   29.78F WCI  24
OLATHE EXE     CLOUDY    34  25  69 SE15G26   29.79F WCI  24
SALINA         PTCLDY    41  36  82 S9        29.63R
TOPEKA BILLARD CLOUDY    40  27  59 SE16G28   29.74F WCI  31
TOPEKA FORBES  CLOUDY    38  28  67 SE21G28   29.72S WCI  28
$$




USA.gov is the U.S. government's official web portal to all federal, state and local government web resources and services.